Starlink 33675

operational
NORAD ID: 63423 Int'l Des: 2025-065 Owner: SPXS Country: US Constellation: starlink
LEOCIRCULAR

Starlink 33675について

説明を読み込み中...

リアルタイム位置

3D地球を読み込み中...

次回通過

高度履歴

Altitude vs Time

uPlot chart will show altitude changes over time

軌道要素

1 63423U 25065AA 25352.93623294 .00017468 00000-0 64257-3 0 9994
2 63423 42.9979 202.7319 0001279 271.2523 88.8182 15.27591559 40496
Epoch: Dec 18, 2025 • Age: 5 hours

現在のステータス

高度 483.1 km
速度 7.63 km/s
衛星直下点 23.24°N, 90.9°E
打ち上げ日 Mar 31, 2025
運用期間 0.7 years
タイプ internet

技術仕様

分類 Payload
質量 575.00 kg
乾燥質量 530.00 kg
総質量 575.00 kg
長さ 0.30 m
直径 4.10 m
スパン 29.00 m
形状 Box + pan
製造者 SPXS
バスタイプ Starlink V2MO
フェーズステータス In Orbit
所有者/国 SPXS/US

大規模コンステレーション

Loading constellations...